Regional Weather Roundup
Issued by NWS

Home | Current Version | Previous Version | Graphics & Text | Print | Product List | Glossary On
Versions: 1 2 3 4 5 6 7 8 9 10 11 12 13 14 15 16 17 18 19 20 21 22 23 24 25 26 27 28 29 30 31 32 33 34 35 36 37 38 39 40 41 42 43 44 45 46 47 48 49 50
514
ASUS43 KOAX 270402
RWRNE

WEATHER ROUNDUP FOR NEBRASKA
NATIONAL WEATHER SERVICE OMAHA NE
1100 PM CDT WED APR 26 2017

NOTES: SATELLITE DATA IS BEING USED TO AUGMENT CLOUD COVER ABOVE
       12000 FEET.
       "FAIR" INDICATES FEW OR NO CLOUDS BELOW 12,000 FEET WITH NO
       SIGNIFICANT WEATHER AND/OR OBSTRUCTIONS TO VISIBILITY.

  * THESE STATIONS DO NOT REPORT WEATHER SUCH AS RAIN...SNOW OR FOG.

NEZ001>004-019>022-054>056-270500-
NEBRASKA PANHANDLE

CITY           SKY/WX    TMP DP  RH WIND       PRES   REMARKS
SCOTTSBLUFF    CLOUDY    44  38  79 SE6       29.71R
ALLIANCE       CLOUDY    36  30  79 E7        29.70S WCI  30
CHADRON        CLEAR     33  29  85 CALM      29.73S
KIMBALL        RAIN      42  40  93 E5        29.73R
SIDNEY         MOCLDY    40  38  93 SE5       29.72S
$$

NEZ057>060-069>072-079>082-270500-
SOUTHWEST NEBRASKA

CITY           SKY/WX    TMP DP  RH WIND       PRES   REMARKS
NORTH PLATTE   CLEAR     34  28  79 CALM      29.73R
IMPERIAL       CLOUDY    39  31  72 NE6       29.73R WCI  35
LEXINGTON      CLEAR     34  28  80 N3        29.74R
MCCOOK         CLEAR     37  28  70 E5        29.72R WCI  33
OGALLALA       CLOUDY    45  35  67 CALM      29.72F
$$

NEZ005>010-023>029-035>040-094-270500-
NORTH CENTRAL NEBRASKA

CITY           SKY/WX    TMP DP  RH WIND       PRES   REMARKS
VALENTINE      CLEAR     31  25  78 W7        29.71F WCI  24
AINSWORTH      CLEAR     33  29  86 W7        29.71S WCI  27
BROKEN BOW     CLEAR     31  26  82 NW3       29.72R
O`NEILL        CLEAR     33  28  81 N3        29.71R
ORD            CLEAR     32  27  81 W7        29.70S WCI  26
THEDFORD       CLEAR     32  28  86 NW3       29.74R
$$

NEZ041-046>049-061>064-073>077-083>087-270500-
SOUTH CENTRAL NEBRASKA

CITY           SKY/WX    TMP DP  RH WIND       PRES   REMARKS
GRAND ISLAND   PTCLDY    31  27  85 W5        29.74R WCI  26
AURORA         CLEAR     32  26  77 NW5       29.73S WCI  27
HASTINGS       CLEAR     34  27  75 CALM      29.75R
HEBRON         MOCLDY    37  30  78 NW3       29.75R
HOLDREGE       CLEAR     33  28  79 CALM      29.74R
KEARNEY *      CLEAR     36  27  69 N3        29.75R
YORK           CLEAR     36  28  75 NW3       29.73S
$$

NEZ011>018-030>034-042>045-270500-
NORTHEAST NEBRASKA

CITY           SKY/WX    TMP DP  RH WIND       PRES   REMARKS
NORFOLK        CLOUDY    37  29  72 N9        29.71R WCI  30
ALBION         CLEAR     32  29  87 CALM      29.72R
BLAIR          CLOUDY    39  32  75 NW10G17   29.69S WCI  32
FREMONT        CLOUDY    39  32  75 NW9       29.71F WCI  33
TEKAMAH        CLOUDY    39  31  72 NW12      29.70F WCI  32
WAYNE          CLOUDY    37  32  83 N7        29.70S WCI  31
$$

NEZ050>053-065>068-078-088>093-270500-
SOUTHEAST NEBRASKA

CITY           SKY/WX    TMP DP  RH WIND       PRES   REMARKS
LINCOLN        CLOUDY    43  29  57 N14       29.73S
OMAHA EPPLEY   CLOUDY    41  31  67 NW13      29.69S
BEATRICE       CLOUDY    44  33  65 N14       29.71F
FALLS CITY     CLOUDY    43  33  68 NW13      29.68F
NEBRASKA CITY  CLOUDY    41  30  63 N16       29.69F
PLATTSMOUTH    CLOUDY    40  29  64 NW14      29.69F WCI  33
$$

NEZ044-045-051>053-067-270500-
OMAHA AREA

CITY           SKY/WX    TMP DP  RH WIND       PRES   REMARKS
OMAHA EPPLEY   CLOUDY    41  31  67 NW13      29.69S
BLAIR          CLOUDY    39  32  75 NW10G17   29.69S WCI  32
FREMONT        CLOUDY    39  32  75 NW9       29.71F WCI  33
MILLARD        CLOUDY    42  32  67 NW13G18   29.70F
OFFUTT AFB     CLOUDY    41  31  67 NW7       29.69F
PLATTSMOUTH    CLOUDY    40  29  64 NW14      29.69F WCI  33
WAHOO          CLOUDY    40  32  73 N8        29.70F WCI  35
$$




USA.gov is the U.S. government's official web portal to all federal, state and local government web resources and services.